Regional Weather Roundup
Issued by NWS Upton, NY

Current Version | Previous Version | Graphics & Text | Print | Product List | Glossary Off
Versions: 1 2 3 4 5 6 7 8 9 10 11 12 13 14 15 16 17 18 19 20 21 22 23 24 25 26 27 28 29 30 31 32 33 34 35 36 37 38 39 40 41 42 43 44 45 46 47 48 49 50

000
ASUS41 KOKX 250408
RWROKX

REGIONAL WEATHER ROUNDUP
NATIONAL WEATHER SERVICE NEW YORK NY
1200 AM EDT SAT MAR 25 2017

NOTE: "FAIR" INDICATES FEW OR NO CLOUDS BELOW 12,000 FEET WITH NO
SIGNIFICANT WEATHER AND/OR OBSTRUCTIONS TO VISIBILITY.

NYZ071-072-176-178-NJZ106-104-250500-
NEW YORK CITY METRO AREA

CITY           SKY/WX    TMP DP  RH WIND       PRES   REMARKS
Central Park   PTCLDY    54  32  43 W6        30.15F
Wall St Helipt MOCLDY    52  34  50 W8        30.14S
LaGuardia APRT CLOUDY    55  32  41 SW7       30.13S
Kennedy INTL   CLOUDY    44  39  82 S8        30.15F
Breezy Point     N/A     46 N/A N/A SW7         N/A
Newark/Liberty MOCLDY    52  32  46 SW7       30.13F
Teterboro      CLOUDY    48  34  58 S7        30.12F
$$

NYZ177-179-078>081-250500-
LONG ISLAND NEW YORK

CITY           SKY/WX    TMP DP  RH WIND       PRES   REMARKS
Jones Beach      N/A     43 N/A N/A SW8         N/A
Matinecock PT  NOT AVBL
Farmingdale    PTCLDY    45  38  76 SW8       30.14F
MacArthur/ISP  MOCLDY    45  39  79 SW10      30.12F
Shirley        CLOUDY    44  38  79 S8        30.14F
Westhampton    CLOUDY    43  37  79 SW9       30.14F
East Hampton     N/A     42  37  84 SW14G20   30.10F
Montauk          N/A     47  38  71 SW12G22   30.12F
$$

NYZ052-065-067-250500-
HUDSON VALLEY

CITY           SKY/WX    TMP DP  RH WIND       PRES   REMARKS
White Plains   CLOUDY    51  31  46 SW7       30.09F
Newburgh       NOT AVBL
Montgomery     CLOUDY    35  31  85 N5        30.09R WCI  31
Poughkeepsie   CLOUDY    33  30  88 CALM      30.10S
Albany         CLOUDY    40  33  76 N8        30.09R WCI  34
$$

NJZ001-105-106-008-010-013-015-019>022-104-250500-
NEW JERSEY

CITY           SKY/WX    TMP DP  RH WIND       PRES   REMARKS
Newark/Liberty MOCLDY    52  32  46 SW7       30.13F
Teterboro      CLOUDY    48  34  58 S7        30.12F
Caldwell       CLOUDY    50  32  50 SW3       30.13R
Somerville     CLOUDY    39  32  76 S3        30.11F
Linden           N/A     52  31  45 SW5       30.12F
Sussex         PTCLDY    35  33  92 CALM      30.10F
Andover          N/A     44  33  65 S5        30.11F
Trenton        CLOUDY    46  32  58 SW5       30.15F
Millville      PTCLDY    52  43  71 SW3       30.17S
Atlantic City  PTCLDY    50  40  68 SW6       30.17S
Wrightstown    CLEAR     42  33  70 CALM      30.14F
Toms River     CLEAR     38  32  79 CALM      30.18F
Belmar         PTCLDY    45  33  63 S7        30.16F
$$

PAZ047>061-062-071-250500-
EASTERN PENNSYLVANIA

CITY           SKY/WX    TMP DP  RH WIND       PRES   REMARKS
Philadelphia   MOCLDY    45  34  65 S3        30.18S
Allentown      PTCLDY    45  34  65 W6        30.13F
Scranton       CLOUDY    47  39  74 SW3       30.09F
$$

CTZ002-004>006-009-010-012-RIZ004-006-007-MAZ004-011-015-250500-
SOUTHERN NEW ENGLAND
 IN CT

CITY           SKY/WX    TMP DP  RH WIND       PRES   REMARKS
Bradley INTL   CLOUDY    43  32  65 SW10      30.07F
Hartford       CLOUDY    41  32  70 S6        30.10F
Danbury        CLOUDY    45  34  65 W5        30.10S
Wtrbury/Oxford CLOUDY    43  30  61 SW3       30.09F
Bridgeport     CLOUDY    42  36  79 W5        30.10F
Meriden        CLOUDY    41  33  73 S5        30.10S
New Haven      PTCLDY    41  36  82 CALM      30.11F
Chester        NOT AVBL
Groton         CLEAR     44  36  73 CALM      30.11F
Wilimantic     PTCLDY    43  33  68 SW5       30.10S

 IN RI

CITY           SKY/WX    TMP DP  RH WIND       PRES   REMARKS
Providence     CLOUDY    46  33  60 SW10      30.09S
Block Island   CLEAR     43  39  86 SW17G25   30.13S
Westerly       PTCLDY    43  38  82 SW6       30.12F
 IN MA

CITY           SKY/WX    TMP DP  RH WIND       PRES   REMARKS
Boston         CLOUDY    46  32  58 SW8       30.08S
Worcester      CLOUDY    43  30  60 W12       30.04R
Westfield      PTCLDY    40  31  70 S3        30.06F
Provincetown   CLOUDY    43  35  73 W5        30.10R
Nantucket      MOCLDY    43  39  86 SW21      30.11F
$$

ANZ330-335-338-340-345-350-353-355-250500-
COASTAL MARINE OBSERVATIONS


STATION/POSITION TIME  SKY/WX   TEMP    WIND        PRES    VSBY  WAVE
                                AIR SEA DIR/SP/G                  HT/PER
                 (UTC)          (F)     (DEG/KT/KT) (MB)    (MI)  (FT/S)
NY HARB ENTRANCE 0250            44 42  210/ 10/ 12 1021.9          4/ 7
20 S FIRE ISLAND 0350            44 40  210/ 17/ 21 1020.7          6/ 7
GREAT SOUTH BAY  NOT AVBL
23 SSW MONTAUK P 0250            47 43              1021.6          7/ 7
15 E BARNEGAT LI 0330               42                N/A           6/ 6
HUDSON CANYON    0250            50 45  220/ 17/ 21 1023.0          8/ 7
KINGS POINT      0348            50 38              1019.9
EXECUTION ROCKS  NOT AVBL
CENTRAL LI SOUND 0330            41     200/  6/  8   N/A           1/ 3
EASTERN LI SOUND NOT AVBL
ROBBINS REEF     0348            53     260/  8/ 10 1020.6
$$


>>>>>>>>>>>>>>>>>>>>>>>>>>>> KEY <<<<<<<<<<<<<<<<<<<<<<<<<<<
>                                                          <
>     SKY/WX - Sky Condition/Present Weather               <
>     TMP    - Temperature in Fahrenheit                   <
>     DP     - Dew Point in Fahrenheit                     <
>     RH     - Relative Humidity in Percent                <
>     WIND   - Direction (from) and Speed in MPH           <
>     PRES   - Mean Sea Level Pressure (inches of Hg)      <
>     WCI    - Wind Chill Index                            <
>     VSB    - VISIBILITY IN MILES                         <
>     HX     - HEAT INDEX                                  <
>     TC     - TEMPERATURE IN CELSIUS                      <
>     VRB    - VARIABLE WIND DIRECTION                     <
>                                                          <
>>>>>>>>>>>>>>>>>>>>>>>>>>>> KEY <<<<<<<<<<<<<<<<<<<<<<<<<<<



USA.gov is the U.S. government's official web portal to all federal, state and local government web resources and services.